• în Republica Moldova
  • Lista ţărilor
  • Pe 7 zile
  • Temperatura apei
  • Hartă satelitară
  • Meteo pe hartă
  • Widget-uri
  • user-avatar
    Intrare

    Meteo pe oră la Ischgl

    Astăzi, 24 Iunie, Sâmbătă

    Timp Temperatura Precipitaţii Vânt Presiune Umiditate
    00:00 +7°C° 0 mm 1 m/s 578 mmHg 92%
    01:00 +7°C° 0 mm 1 m/s 578 mmHg 93%
    02:00 +7°C° 0 mm 1 m/s 578 mmHg 92%
    03:00 +6°C° 0 mm 1 m/s 578 mmHg 90%
    04:00 +6°C° 0 mm 1 m/s 577 mmHg 89%
    05:00 +9°C° 0 mm 1 m/s 579 mmHg 80%
    06:00 +11°C° 0 mm 1 m/s 580 mmHg 72%
    07:00 +12°C° 0 mm 0 m/s 581 mmHg 63%
    08:00 +15°C° 0 mm 1 m/s 582 mmHg 57%
    09:00 +18°C° 0 mm 1 m/s 583 mmHg 51%
    10:00 +20°C° 0 mm 1 m/s 584 mmHg 44%
    11:00 +20°C° 0,1 mm 1 m/s 583 mmHg 47%
    12:00 +19°C° 0,1 mm 2 m/s 583 mmHg 49%
    13:00 +19°C° 0,1 mm 2 m/s 583 mmHg 52%
    14:00 +18°C° 0,5 mm 2 m/s 582 mmHg 57%
    15:00 +17°C° 0,5 mm 2 m/s 582 mmHg 62%
    16:00 +17°C° 0,5 mm 2 m/s 581 mmHg 68%
    17:00 +15°C° 0,8 mm 2 m/s 581 mmHg 74%
    18:00 +14°C° 0,8 mm 1 m/s 580 mmHg 81%
    19:00 +13°C° 0,8 mm 1 m/s 580 mmHg 87%
    20:00 +11°C° 0,4 mm 1 m/s 579 mmHg 91%
    21:00 +10°C° 0,4 mm 1 m/s 578 mmHg 94%
    22:00 +7°C° 0,4 mm 0 m/s 577 mmHg 98%
    23:00 +7°C° 0,3 mm 0 m/s 577 mmHg 98%

    Mâine, 25 Iunie, Duminică

    Timp Temperatura Precipitaţii Vânt Presiune Umiditate
    00:00 +6°C° 0,3 mm 0 m/s 577 mmHg 98%
    01:00 +6°C° 0,3 mm 0 m/s 577 mmHg 98%
    02:00 +6°C° 0,4 mm 0 m/s 577 mmHg 98%
    03:00 +7°C° 0,4 mm 0 m/s 577 mmHg 98%
    04:00 +8°C° 0,4 mm 1 m/s 577 mmHg 98%
    05:00 +9°C° 1 mm 1 m/s 577 mmHg 96%
    06:00 +9°C° 1 mm 1 m/s 577 mmHg 95%
    07:00 +10°C° 1 mm 1 m/s 578 mmHg 93%
    08:00 +10°C° 0,6 mm 1 m/s 578 mmHg 89%
    09:00 +11°C° 0,6 mm 1 m/s 578 mmHg 84%
    10:00 +12°C° 0,6 mm 1 m/s 578 mmHg 79%
    11:00 +12°C° 0,6 mm 2 m/s 578 mmHg 78%
    12:00 +12°C° 0,6 mm 2 m/s 579 mmHg 76%
    13:00 +13°C° 0,6 mm 2 m/s 579 mmHg 74%
    14:00 +13°C° 0,3 mm 2 m/s 579 mmHg 72%
    15:00 +13°C° 0,3 mm 2 m/s 579 mmHg 70%
    16:00 +13°C° 0,3 mm 2 m/s 579 mmHg 69%
    17:00 +12°C° 0,1 mm 2 m/s 578 mmHg 73%
    18:00 +12°C° 0,1 mm 2 m/s 578 mmHg 77%
    19:00 +10°C° 0,1 mm 2 m/s 578 mmHg 81%
    20:00 +9°C° 0 mm 1 m/s 577 mmHg 86%
    21:00 +7°C° 0 mm 1 m/s 577 mmHg 91%
    22:00 +5°C° 0 mm 1 m/s 576 mmHg 97%
    23:00 +5°C° 0 mm 1 m/s 576 mmHg 97%

    Poimâine, 26 Iunie, Luni

    Timp Temperatura Precipitaţii Vânt Presiune Umiditate
    00:00 +4°C° 0 mm 1 m/s 576 mmHg 96%
    01:00 +4°C° 0 mm 1 m/s 575 mmHg 96%
    02:00 +4°C° 0 mm 1 m/s 575 mmHg 96%
    03:00 +3°C° 0 mm 1 m/s 575 mmHg 95%
    04:00 +3°C° 0 mm 1 m/s 574 mmHg 94%
    05:00 +5°C° 0 mm 1 m/s 576 mmHg 87%
    06:00 +7°C° 0 mm 0 m/s 577 mmHg 79%
    07:00 +9°C° 0 mm 0 m/s 578 mmHg 72%
    08:00 +12°C° 0 mm 0 m/s 579 mmHg 61%
    09:00 +15°C° 0 mm 1 m/s 580 mmHg 51%
    10:00 +19°C° 0 mm 1 m/s 581 mmHg 41%
    11:00 +19°C° 0 mm 1 m/s 582 mmHg 39%
    12:00 +20°C° 0 mm 1 m/s 582 mmHg 38%
    13:00 +20°C° 0 mm 2 m/s 582 mmHg 37%
    14:00 +19°C° 0,1 mm 2 m/s 581 mmHg 43%
    15:00 +18°C° 0,1 mm 2 m/s 581 mmHg 49%
    16:00 +17°C° 0,1 mm 2 m/s 580 mmHg 55%
    17:00 +16°C° 0,4 mm 2 m/s 579 mmHg 65%
    18:00 +15°C° 0,4 mm 1 m/s 579 mmHg 75%
    19:00 +13°C° 0,4 mm 1 m/s 578 mmHg 85%
    20:00 +12°C° 0,4 mm 1 m/s 578 mmHg 87%
    21:00 +11°C° 0,4 mm 1 m/s 577 mmHg 90%
    22:00 +9°C° 0,4 mm 1 m/s 577 mmHg 92%
    23:00 +9°C° 0,5 mm 1 m/s 577 mmHg 93%

    27 Iunie, Marţi

    Timp Temperatura Precipitaţii Vânt Presiune Umiditate
    00:00 +9°C° 0,5 mm 1 m/s 577 mmHg 94%
    01:00 +8°C° 0,5 mm 2 m/s 576 mmHg 95%
    02:00 +8°C° 0,3 mm 2 m/s 576 mmHg 95%
    03:00 +7°C° 0,3 mm 2 m/s 576 mmHg 96%
    04:00 +7°C° 0,3 mm 2 m/s 575 mmHg 96%
    05:00 +8°C° 0,3 mm 2 m/s 575 mmHg 95%
    06:00 +8°C° 0,3 mm 2 m/s 576 mmHg 93%
    07:00 +10°C° 0,3 mm 1 m/s 576 mmHg 92%
    08:00 +10°C° 0,2 mm 2 m/s 576 mmHg 86%
    09:00 +12°C° 0,2 mm 2 m/s 577 mmHg 81%
    10:00 +13°C° 0,2 mm 2 m/s 577 mmHg 75%
    11:00 +14°C° 0,2 mm 2 m/s 578 mmHg 69%
    12:00 +15°C° 0,2 mm 2 m/s 578 mmHg 64%
    13:00 +18°C° 0,2 mm 1 m/s 578 mmHg 59%
    14:00 +16°C° 0,5 mm 1 m/s 578 mmHg 60%
    15:00 +16°C° 0,5 mm 1 m/s 578 mmHg 62%
    16:00 +16°C° 0,5 mm 1 m/s 578 mmHg 63%
    17:00 +15°C° 0,4 mm 1 m/s 577 mmHg 70%
    18:00 +14°C° 0,4 mm 1 m/s 577 mmHg 77%
    19:00 +14°C° 0,4 mm 1 m/s 576 mmHg 84%
    20:00 +12°C° 0 mm 1 m/s 575 mmHg 87%
    21:00 +9°C° 0 mm 2 m/s 575 mmHg 90%
    22:00 +7°C° 0 mm 2 m/s 574 mmHg 94%
    23:00 +7°C° 0 mm 2 m/s 573 mmHg 93%

    28 Iunie, Miercuri

    Timp Temperatura Precipitaţii Vânt Presiune Umiditate
    00:00 +7°C° 0 mm 2 m/s 573 mmHg 93%
    01:00 +6°C° 0 mm 2 m/s 573 mmHg 92%
    02:00 +6°C° 0 mm 2 m/s 572 mmHg 92%
    03:00 +6°C° 0 mm 2 m/s 572 mmHg 91%
    04:00 +7°C° 0 mm 2 m/s 572 mmHg 90%
    05:00 +8°C° 0 mm 3 m/s 573 mmHg 87%
    06:00 +9°C° 0 mm 3 m/s 573 mmHg 83%
    07:00 +10°C° 0 mm 3 m/s 574 mmHg 80%
    08:00 +12°C° 0 mm 3 m/s 574 mmHg 71%
    09:00 +14°C° 0 mm 3 m/s 575 mmHg 63%
    10:00 +17°C° 0 mm 3 m/s 575 mmHg 54%
    11:00 +16°C° 0,8 mm 3 m/s 575 mmHg 60%
    12:00 +14°C° 0,8 mm 3 m/s 575 mmHg 67%
    13:00 +14°C° 0,8 mm 3 m/s 574 mmHg 73%
    14:00 +13°C° 2,1 mm 3 m/s 574 mmHg 77%
    15:00 +12°C° 2,1 mm 3 m/s 573 mmHg 81%
    16:00 +12°C° 2,1 mm 3 m/s 573 mmHg 85%
    17:00 +11°C° 1,1 mm 3 m/s 572 mmHg 85%
    18:00 +11°C° 1,1 mm 3 m/s 572 mmHg 85%
    19:00 +11°C° 1,1 mm 3 m/s 571 mmHg 86%
    20:00 +9°C° 0,6 mm 3 m/s 571 mmHg 87%
    21:00 +8°C° 0,6 mm 3 m/s 570 mmHg 89%
    22:00 +7°C° 0,6 mm 3 m/s 570 mmHg 91%
    23:00 +7°C° 0,1 mm 3 m/s 569 mmHg 90%

    29 Iunie, Joi

    Timp Temperatura Precipitaţii Vânt Presiune Umiditate
    00:00 +5°C° 0,1 mm 3 m/s 569 mmHg 90%
    01:00 +5°C° 0,1 mm 3 m/s 568 mmHg 89%
    02:00 +4°C° 0 mm 3 m/s 568 mmHg 89%
    03:00 +4°C° 0 mm 3 m/s 568 mmHg 88%
    04:00 +4°C° 0 mm 3 m/s 568 mmHg 87%
    05:00 +4°C° 0,2 mm 3 m/s 568 mmHg 84%
    06:00 +6°C° 0,2 mm 2 m/s 569 mmHg 81%
    07:00 +7°C° 0,2 mm 2 m/s 569 mmHg 78%
    08:00 +7°C° 0,7 mm 2 m/s 569 mmHg 78%
    09:00 +8°C° 0,7 mm 2 m/s 570 mmHg 78%
    10:00 +8°C° 0,7 mm 2 m/s 570 mmHg 78%
    11:00 +8°C° 1,2 mm 2 m/s 570 mmHg 80%
    12:00 +8°C° 1,2 mm 3 m/s 570 mmHg 82%
    13:00 +8°C° 1,2 mm 3 m/s 570 mmHg 84%
    14:00 +8°C° 0,8 mm 3 m/s 570 mmHg 83%
    15:00 +8°C° 0,8 mm 3 m/s 570 mmHg 81%
    16:00 +8°C° 0,8 mm 2 m/s 570 mmHg 80%
    17:00 +7°C° 1,3 mm 2 m/s 569 mmHg 85%
    18:00 +6°C° 1,3 mm 2 m/s 569 mmHg 89%
    19:00 +5°C° 1,3 mm 2 m/s 568 mmHg 93%
    20:00 +4°C° 1,8 mm 2 m/s 568 mmHg 94%
    21:00 +3°C° 1,8 mm 2 m/s 568 mmHg 96%
    22:00 +3°C° 1,8 mm 1 m/s 568 mmHg 97%
    23:00 +3°C° 1,5 mm 1 m/s 568 mmHg 97%
    Arată mai mult